Regional Weather Roundup
Issued by NWS

Home | Current Version | Previous Version | Text Only | Print | Product List | Glossary Off
Versions: 1 2 3 4 5 6 7 8 9 10 11 12 13 14 15 16 17 18 19 20 21 22 23 24 25 26 27 28

000
ASUS45 KSLC 300410
RWRUT

UTAH REGIONAL WEATHER ROUNDUP
NATIONAL WEATHER SERVICE SALT LAKE CITY UT
1000 PM MDT SUN MAY 29 2016

UTZ001>011-023>025-300500-

NORTHERN UTAH

CITY           SKY/WX    TMP DP  RH WIND       PRES   REMARKS
BRIGHAM CITY     N/A     65  41  41 E14G21    30.07R
HILL AFB       LGT RAIN  61  50  67 NW13      30.11R
LOGAN          CLOUDY    57  52  83 S10       30.10R
OGDEN          LGT RAIN  61  48  62 W9G16     30.10R
PROVO AIRPORT  CLOUDY    61  45  55 E7        30.09F
SALT LAKE CITY CLOUDY    66  44  45 S10       30.05R
VERNAL         CLOUDY    57  42  57 CALM      30.11R
WENDOVER       MOCLDY    66  43  42 NW14G23   30.02R
HEBER CITY     LGT RAIN  54  45  71 E7        30.16F
WEST JORDAN    CLEAR     61  46  59 S9        30.08F

$$

UTZ012>022-026-027-300500-

SOUTHERN/CENTRAL UTAH

CITY           SKY/WX    TMP DP  RH WIND       PRES   REMARKS
BLANDING       PTCLDY    63  26  25 N9        30.13S
BRYCE CANYON   PTCLDY    54  31  41 N10       30.22R
CEDAR CITY     MOCLDY    60  36  40 NE9       30.09R
DELTA          CLOUDY    63  41  45 CALM      30.07R
HANKSVILLE     CLEAR     70  30  23 N3        30.03R
MILFORD        MOCLDY    59  35  40 SW3       30.07R
MOAB/CYNLANDS  PTCLDY    72  34  24 NE9       29.99R
PRICE          MOCLDY    63  31  30 W13       30.12R
ST GEORGE      CLOUDY    84  27  12 W9        29.90R
KANAB          MOCLDY    66  28  24 S3        30.04R

$$

REGIONAL REPORTS     COLORADO/ARIZONA

CITY           SKY/WX    TMP DP  RH WIND       PRES   REMARKS
CRAIG, CO      CLOUDY    54  40  59 E7        30.17F
GRAND JUNCTION CLEAR     67  34  29 NE14      30.04R
RIFLE          CLOUDY    59  37  44 CALM      30.13R
MONTROSE       CLEAR     58  36  43 E7        30.12R
CORTEZ         CLEAR     57  30  35 E7        30.08R
PAGE, AZ       PTCLDY    74  21  13 SE7       29.94R
GRAND CANYON   PTCLDY    56  12  17 SW3       30.16R
KINGMAN        CLEAR     68  19  15 S8        29.97R
FLAGSTAFF      CLEAR     52  16  24 SW3       30.20R

$$

REGIONAL REPORTS    NEVADA/IDAHO/WYOMING

CITY           SKY/WX    TMP DP  RH WIND       PRES   REMARKS
LAS VEGAS, NV  PTCLDY    85  15   7 S8        29.82R
ELY            MOCLDY    59  35  40 SW10G21   30.15R
ELKO           PTCLDY    64  43  46 SE9       30.03R
POCATELLO, ID  CLOUDY    63  39  41 S15       30.03R
BURLEY         CLOUDY    59  45  59 S10       30.00R
EVANSTON, WY   CLOUDY    51  37  58 SW8G18    30.19R
ROCK SPRINGS   CLOUDY    54  38  54 SW7       30.15S
KEMMERER         N/A     52  39  62 CALM      30.20R

$$




USA.gov is the U.S. government's official web portal to all federal, state and local government web resources and services.